Balx

Tajikistan     37˚35′42″N   68˚39′20″E
temp.,
°C
wind,
m/s
gust,
m/s
humid.,
%
clouds,
%
prec.,
mm/h
press.,
hPa
HPBL,
m
28 november, sat
sat2823:00+11˚sse1233100 0.0 102722
02:00+10˚s3434100 0.0 103059
05:00+8˚ssw464299 0.0 1036105
08:00+7˚ssw2463100 0.0 1041254
11:00+8˚ne2272100 0.6 1042502
14:00+10˚nne345881 0.0 1039792
17:00+9˚n225941 0.0 103727
20:00+7˚nne12690 0.0 103623
29 november, sun
sun2923:00+6˚nne127230 0.0 103523
02:00+5˚nne127538 0.0 103423
05:00+5˚n117569 0.0 103222
08:00+4˚nne12728 0.0 103223
11:00+10˚n22434 0.0 1030327
14:00+13˚nne123122 0.0 1028521
17:00+10˚wnw114261 0.0 102822
20:00+8˚n114773 0.0 102822
30 november, mon
mon3023:00+7˚nne124673 0.0 102822
02:00+6˚nne225071 0.0 102722
05:00+5˚nne224956 0.0 102623
08:00+5˚nne12446 0.0 102523
11:00+11˚nne23233 0.0 1024288
14:00+13˚n111895 0.0 1021402
17:00+10˚wnw112997 0.0 102022
20:00+10˚nne1227100 0.0 102022
1 december, tue
tue123:00+10˚nne2226100 0.0 102022
02:00+9˚n1231100 0.0 102122
05:00+9˚wnw113198 0.0 102122
08:00+9˚wsw113293 0.0 102322
11:00+14˚wnw122290 0.0 1024240
14:00+15˚sw112293 0.0 1023344
17:00+13˚ssw223060 0.0 102424
20:00+11˚s113463 0.0 102522
2 december, wed
wed223:00+10˚nne114056 0.0 102622
02:00+9˚ne125212 0.0 102522
05:00+8˚nne11666 0.0 102522
08:00+8˚n12710 0.0 102622
11:00+14˚nne22500 0.0 1025268
14:00+18˚nne33360 0.0 1023520
17:00+15˚nnw23460 0.0 102223
20:00+13˚ne12514 0.0 102323